SYRACUSE 3A

Last updated on Nov. 19, 2019, 4:25 a.m. UTC

1 28885U 05041B   19322.44146025  .00000133  00000-0  00000+0 0  9990
2 28885   0.0142 324.4580 0002954 274.0849  24.5923  1.00270036 51639
UTC
Height (km)
Latitude
Longitude
Inclination
Orbital Period
UTC large
Height (km)
Speed (km/s)
/
Latitude / Longitude
Inclination (degrees)
Orbital Period (minutes)
Azimuth
Elevation
Range (km)
Doppler Factor
iOS Compass Heading
iOS Angle

Next 30 passes for location: Hong Kong

Rise time Rise Azimuth (degrees) Set time Set Azimuth (degrees) Duration Max altitude (degrees)

No matching passes for this satellites